This demonstration page uses our WeatherBlox Daily Observations layout. Learn more.

Left ArrowRight Arrow

44.89941, -97.11507

Hourly Observations for July 18, 2020

Temp ( °F °C ) Dew Point ( °F °C ) Humidity (%) Winds ( mph kmh ) Pressure ( in mb ) Visibility ( mi km ) Precip ( " mm )
12:21 am 00:21 Partly Cloudy 71 21.7 65 18.3 81 81 N 37 59 29.76 1008 10 16 0.00 0.00
12:23 am 00:23 Mostly Cloudy 70 21.1 63 17.2 79 79 NNE 36 57 29.77 1008 10 16 0.00 0.00
12:31 am 00:31 Mostly Cloudy 70 21.1 62 16.7 76 76 NNE 46 74 29.81 1009 10 16 0.00 0.00
12:42 am 00:42 Cloudy with Nearby Thunderstorms 67 19.4 61 16.1 81 81 NE 29 46 29.81 1009 10 16 0.00 0.00
12:50 am 00:50 Cloudy with Thunderstorms 66 19 63 17 88 88 NNE 23 37 29.85 1011 10 16 0.00 0.00
12:53 am 00:53 Cloudy with Thunderstorms 67 19.4 62 16.7 84 84 NNE 20 31 29.87 1012 10 16 0.00 0.00
1:05 am 01:05 Cloudy with Strong Thunderstorms 65 18.3 63 17.2 93 93 NNE 21 33 29.86 1011 3 4 0.18 4.57
1:07 am 01:07 Cloudy with Strong Thunderstorms 65 18.3 63 17.2 93 93 NNE 21 33 29.85 1011 2 2 0.28 7.11
1:11 am 01:11 Cloudy with Strong Thunderstorms 64 17.8 63 17.2 96 96 NE 24 39 29.83 1010 1 1 0.52 13.21
1:24 am 01:24 Cloudy with Thunderstorms 64 17.8 64 17.8 100 100 ENE 21 33 29.84 1010 2 2 0.82 20.83
1:26 am 01:26 Cloudy with Thunderstorms 64 17.8 64 17.8 100 100 ENE 20 31 29.83 1010 3 4 0.83 21.08
1:32 am 01:32 Cloudy with Strong Thunderstorms 64 17.8 64 17.8 100 100 E 17 28 29.82 1010 4 6 0.91 23.11
1:46 am 01:46 Windy with Storms Likely 65 18.3 63 17.2 93 93 E 20 31 29.80 1009 10 16 0.93 23.62
1:53 am 01:53 Mostly Cloudy with Thunderstorms 65 18.3 64 17.8 97 97 E 17 28 29.80 1009 10 16 0.93 23.62
2:00 am 02:00 Cloudy with Nearby Thunderstorms 66 18.9 64 17.8 93 93 E 16 26 29.79 1009 10 16 0.00 0.00
2:12 am 02:12 Cloudy 66 18.9 64 17.8 93 93 E 12 19 29.79 1009 10 16 0.00 0.00
3:53 am 03:53 Clear 66 18.9 63 17.2 90 90 SE 9 15 29.73 1007 10 16 0.00 0.00
4:53 am 04:53 Clear 66 18.9 64 17.8 93 93 SSE 13 20 29.71 1006 10 16 0.00 0.00
5:53 am 05:53 Clear 66 18.9 64 17.8 93 93 SSE 12 19 29.70 1006 10 16 0.00 0.00
6:53 am 06:53 Sunny 67 19.4 64 17.8 91 91 S 12 19 29.69 1005 10 16 0.00 0.00
7:53 am 07:53 Sunny 70 21.1 65 18.3 84 84 SSE 12 19 29.67 1005 10 16 0.00 0.00
8:53 am 08:53 Sunny 74 23.3 68 20 82 82 SSE 12 19 29.66 1004 10 16 0.00 0.00
9:53 am 09:53 Sunny 77 25 71 21.7 82 82 S 13 20 29.65 1004 10 16 0.00 0.00
10:41 am 10:41 Mostly Cloudy 80 26.7 72 22.2 76 76 undefined N/A 29.66 1005 10 16 0.00 0.00
10:53 am 10:53 Cloudy 78 25.6 72 22.2 82 82 NW 6 9 29.70 1006 10 16 0.00 0.00
11:09 am 11:09 Mostly Cloudy 80 26.7 72 22.2 76 76 VRB 3 6 29.65 1004 10 16 0.00 0.00
11:53 am 11:53 Cloudy 81 27.2 72 22.2 74 74 NNE 5 7 29.69 1005 10 16 0.00 0.00
12:53 pm 12:53 Cloudy 77 25 71 21.7 82 82 N 7 11 29.74 1007 10 16 0.00 0.00
1:49 pm 13:49 Mostly Cloudy 79 26 72 22 79 79 N 3 6 29.69 1005 10 16 0.00 0.00
1:53 pm 13:53 Mostly Cloudy 78 25.6 73 22.8 85 85 N 3 6 29.75 1007 10 16 0.00 0.00
2:53 pm 14:53 Cloudy 74 23.3 70 21.1 88 88 NNE 14 22 29.77 1008 10 16 0.00 0.00
3:53 pm 15:53 Cloudy 77 25 69 20.6 77 77 NNW 16 26 29.76 1008 10 16 0.00 0.00
4:32 pm 16:32 Cloudy 77 25 68 20 74 74 NNW 15 24 29.73 1007 10 16 0.00 0.00
4:53 pm 16:53 Cloudy 77 25 68 20 74 74 NNW 13 20 29.79 1009 10 16 0.00 0.00
5:53 pm 17:53 Cloudy 76 24.4 67 19.4 74 74 N 15 24 29.80 1009 10 16 0.00 0.00
6:53 pm 18:53 Cloudy 76 24.4 64 17.8 67 67 N 7 11 29.80 1009 10 16 0.00 0.00
7:53 pm 19:53 Sunny 76 24.4 63 17.2 64 64 NNW 8 13 29.82 1010 10 16 0.00 0.00
8:53 pm 20:53 Sunny 72 22.2 64 17.8 76 76 NNW 6 9 29.83 1010 10 16 0.00 0.00
9:53 pm 21:53 Clear 71 21.7 63 17.2 76 76 WNW 5 7 29.83 1010 10 16 0.00 0.00
10:53 pm 22:53 Clear 69 20.6 63 17.2 81 81 NW 8 13 29.84 1011 10 16 0.00 0.00
11:53 pm 23:53 Clear 68 20 61 16.1 78 78 NW 8 13 29.86 1011 10 16 0.00 0.00

Powered by AerisWeather